Time,TemperatureF,DewpointF,PressureIn,WindDirection,WindDirectionDegrees,WindSpeedMPH,WindSpeedGustMPH,Humidity,HourlyPrecipIn,Conditions,Clouds,dailyrainin,SolarRadiationWatts/m^2,SoftwareType,DateUTC
2013-07-09 00:02:00,63.0,62.0,-100.00,West,261,0.0,3.0,97,0.00,,,0.26,0.000000,,2013-07-09 05:02:00,
2013-07-09 00:11:00,63.0,62.0,-100.00,West,261,0.0,3.0,97,0.00,,,0.26,0.000000,,2013-07-09 05:11:00,
2013-07-09 00:42:00,62.0,61.0,-100.00,NE,49,0.0,2.0,98,0.00,,,0.26,0.000000,,2013-07-09 05:42:00,
2013-07-09 00:52:00,62.0,61.0,-100.00,NE,49,0.0,2.0,98,0.00,,,0.26,0.000000,,2013-07-09 05:52:00,
2013-07-09 01:01:00,62.0,61.0,-100.00,NE,49,0.0,2.0,98,0.00,,,0.26,0.000000,,2013-07-09 06:01:00,
2013-07-09 01:11:00,62.0,61.0,-100.00,NE,49,0.0,2.0,98,0.00,,,0.26,0.000000,,2013-07-09 06:11:00,
2013-07-09 01:43:00,63.0,63.0,-100.00,North,350,0.0,2.0,99,0.00,,,0.24,0.000000,,2013-07-09 06:43:00,
2013-07-09 01:53:00,63.0,63.0,-100.00,North,350,0.0,2.0,99,0.00,,,0.24,0.000000,,2013-07-09 06:53:00,
2013-07-09 02:02:00,63.0,63.0,-100.00,North,350,0.0,2.0,99,0.00,,,0.24,0.000000,,2013-07-09 07:02:00,
2013-07-09 02:12:00,63.0,63.0,-100.00,North,350,0.0,2.0,99,0.00,,,0.24,0.000000,,2013-07-09 07:12:00,
2013-07-09 02:43:00,63.0,63.0,-100.00,ENE,76,0.0,2.0,99,0.00,,,0.20,0.000000,,2013-07-09 07:43:00,
2013-07-09 02:53:00,63.0,63.0,-100.00,ENE,76,0.0,2.0,99,0.00,,,0.20,0.000000,,2013-07-09 07:53:00,
2013-07-09 03:01:00,63.0,63.0,-100.00,ENE,76,0.0,2.0,99,0.00,,,0.20,0.000000,,2013-07-09 08:01:00,
2013-07-09 03:11:00,63.0,63.0,-100.00,ENE,76,0.0,2.0,99,0.00,,,0.20,0.000000,,2013-07-09 08:11:00,
2013-07-09 03:43:00,63.0,63.0,-100.00,NNE,16,0.0,2.0,99,0.00,,,0.07,0.000000,,2013-07-09 08:43:00,
2013-07-09 03:52:00,63.0,63.0,-100.00,NNE,16,0.0,2.0,99,0.00,,,0.07,0.000000,,2013-07-09 08:52:00,
2013-07-09 04:02:00,63.0,63.0,-100.00,NNE,16,0.0,2.0,99,0.00,,,0.07,0.000000,,2013-07-09 09:02:00,
2013-07-09 04:12:00,63.0,63.0,-100.00,NNE,16,0.0,2.0,99,0.00,,,0.07,0.000000,,2013-07-09 09:12:00,
2013-07-09 04:42:00,63.0,63.0,-100.00,NE,47,0.0,0.0,99,0.00,,,0.03,0.000000,,2013-07-09 09:42:00,
2013-07-09 04:53:00,63.0,63.0,-100.00,NE,47,0.0,0.0,99,0.00,,,0.03,0.000000,,2013-07-09 09:53:00,
2013-07-09 05:01:00,63.0,63.0,-100.00,NE,47,0.0,0.0,99,0.00,,,0.03,0.000000,,2013-07-09 10:01:00,
2013-07-09 05:11:00,63.0,63.0,-100.00,NE,47,0.0,0.0,99,0.00,,,0.03,0.000000,,2013-07-09 10:11:00,
2013-07-09 05:42:00,64.0,64.0,-100.00,ESE,109,0.0,0.0,99,0.00,,,0.00,1.000000,,2013-07-09 10:42:00,
2013-07-09 05:52:00,64.0,64.0,-100.00,ESE,109,0.0,0.0,99,0.00,,,0.00,1.000000,,2013-07-09 10:52:00,
2013-07-09 06:01:00,64.0,64.0,-100.00,ESE,109,0.0,0.0,99,0.00,,,0.00,1.000000,,2013-07-09 11:01:00,
2013-07-09 06:11:00,64.0,64.0,-100.00,ESE,109,0.0,0.0,99,0.00,,,0.00,1.000000,,2013-07-09 11:11:00,
2013-07-09 06:42:00,65.0,65.0,-100.00,SSW,194,2.0,4.0,99,0.00,,,0.00,14.000000,,2013-07-09 11:42:00,
2013-07-09 06:53:00,65.0,65.0,-100.00,SSW,194,2.0,4.0,99,0.00,,,0.00,14.000000,,2013-07-09 11:53:00,
2013-07-09 07:02:00,65.0,65.0,-100.00,SSW,194,2.0,4.0,99,0.00,,,0.00,14.000000,,2013-07-09 12:02:00,
2013-07-09 07:11:00,65.0,65.0,-100.00,SSW,194,2.0,4.0,99,0.00,,,0.00,14.000000,,2013-07-09 12:11:00,
2013-07-09 07:43:00,66.0,66.0,-100.00,SSW,206,4.0,8.0,99,0.00,,,0.00,51.000000,,2013-07-09 12:43:00,
2013-07-09 07:53:00,66.0,66.0,-100.00,SSW,206,4.0,8.0,99,0.00,,,0.00,51.000000,,2013-07-09 12:53:00,
2013-07-09 08:01:00,66.0,66.0,-100.00,SSW,206,4.0,8.0,99,0.00,,,0.00,51.000000,,2013-07-09 13:01:00,
2013-07-09 08:11:00,66.0,66.0,-100.00,SSW,206,4.0,8.0,99,0.00,,,0.00,51.000000,,2013-07-09 13:11:00,
2013-07-09 08:43:00,67.0,67.0,-100.00,South,187,4.0,10.0,99,0.00,,,0.00,89.000000,,2013-07-09 13:43:00,
2013-07-09 08:53:00,67.0,67.0,-100.00,South,187,4.0,10.0,99,0.00,,,0.00,89.000000,,2013-07-09 13:53:00,
2013-07-09 09:01:00,67.0,67.0,-100.00,South,187,4.0,10.0,99,0.00,,,0.00,89.000000,,2013-07-09 14:01:00,
2013-07-09 09:11:00,67.0,67.0,-100.00,South,187,4.0,10.0,99,0.00,,,0.00,89.000000,,2013-07-09 14:11:00,
2013-07-09 09:43:00,69.0,67.0,-100.00,South,171,5.0,9.0,92,0.00,,,0.00,161.000000,,2013-07-09 14:43:00,
2013-07-09 09:53:00,69.0,67.0,-100.00,South,171,5.0,9.0,92,0.00,,,0.00,161.000000,,2013-07-09 14:53:00,
2013-07-09 10:02:00,69.0,67.0,-100.00,South,171,5.0,9.0,92,0.00,,,0.00,161.000000,,2013-07-09 15:02:00,
2013-07-09 10:12:00,69.0,67.0,-100.00,South,171,5.0,9.0,92,0.00,,,0.00,161.000000,,2013-07-09 15:12:00,
2013-07-09 10:43:00,69.0,66.0,-100.00,SSE,168,5.0,9.0,91,0.00,,,0.00,169.000000,,2013-07-09 15:43:00,
2013-07-09 10:52:00,69.0,66.0,-100.00,SSE,168,5.0,9.0,91,0.00,,,0.00,169.000000,,2013-07-09 15:52:00,
2013-07-09 11:02:00,69.0,66.0,-100.00,SSE,168,5.0,9.0,91,0.00,,,0.00,169.000000,,2013-07-09 16:02:00,
2013-07-09 11:11:00,69.0,66.0,-100.00,SSE,168,5.0,9.0,91,0.00,,,0.00,169.000000,,2013-07-09 16:11:00,
2013-07-09 11:43:00,69.0,66.0,-100.00,South,172,6.0,11.0,91,0.00,,,0.00,180.000000,,2013-07-09 16:43:00,
2013-07-09 11:53:00,69.0,66.0,-100.00,South,172,6.0,11.0,91,0.00,,,0.00,180.000000,,2013-07-09 16:53:00,
2013-07-09 12:02:00,69.0,66.0,-100.00,South,172,6.0,11.0,91,0.00,,,0.00,180.000000,,2013-07-09 17:02:00,
2013-07-09 12:11:00,69.0,66.0,-100.00,South,172,6.0,11.0,91,0.00,,,0.00,180.000000,,2013-07-09 17:11:00,
2013-07-09 12:45:00,71.0,67.0,-100.00,South,171,6.0,12.0,87,0.00,,,0.00,205.000000,,2013-07-09 17:45:00,
2013-07-09 12:53:00,71.0,67.0,-100.00,South,171,6.0,12.0,87,0.00,,,0.00,205.000000,,2013-07-09 17:53:00,
2013-07-09 13:02:00,71.0,67.0,-100.00,South,171,6.0,12.0,87,0.00,,,0.00,205.000000,,2013-07-09 18:02:00,
2013-07-09 13:11:00,71.0,67.0,-100.00,South,171,6.0,12.0,87,0.00,,,0.00,205.000000,,2013-07-09 18:11:00,
2013-07-09 13:43:00,73.0,67.0,-100.00,SSE,154,6.0,14.0,81,0.00,,,0.00,376.000000,,2013-07-09 18:43:00,
2013-07-09 13:52:00,73.0,67.0,-100.00,SSE,154,6.0,14.0,81,0.00,,,0.00,376.000000,,2013-07-09 18:52:00,
2013-07-09 14:01:00,73.0,67.0,-100.00,SSE,154,6.0,14.0,81,0.00,,,0.00,376.000000,,2013-07-09 19:01:00,
2013-07-09 14:11:00,73.0,67.0,-100.00,SSE,154,6.0,14.0,81,0.00,,,0.00,376.000000,,2013-07-09 19:11:00,
2013-07-09 14:42:00,73.0,66.0,-100.00,SSE,149,5.0,12.0,80,0.00,,,0.00,317.000000,,2013-07-09 19:42:00,
2013-07-09 14:52:00,73.0,66.0,-100.00,SSE,149,5.0,12.0,80,0.00,,,0.00,317.000000,,2013-07-09 19:52:00,
2013-07-09 15:01:00,73.0,66.0,-100.00,SSE,149,5.0,12.0,80,0.00,,,0.00,317.000000,,2013-07-09 20:01:00,
2013-07-09 15:11:00,73.0,66.0,-100.00,SSE,149,5.0,12.0,80,0.00,,,0.00,317.000000,,2013-07-09 20:11:00,
2013-07-09 15:43:00,73.0,68.0,-100.00,South,171,4.0,11.0,83,0.00,,,0.00,215.000000,,2013-07-09 20:43:00,
2013-07-09 15:52:00,73.0,68.0,-100.00,South,171,4.0,11.0,83,0.00,,,0.00,215.000000,,2013-07-09 20:52:00,
2013-07-09 16:01:00,73.0,68.0,-100.00,South,171,4.0,11.0,83,0.00,,,0.00,215.000000,,2013-07-09 21:01:00,
2013-07-09 16:11:00,73.0,68.0,-100.00,South,171,4.0,11.0,83,0.00,,,0.00,215.000000,,2013-07-09 21:11:00,
2013-07-09 16:42:00,70.0,68.0,-100.00,East,101,3.0,6.0,95,0.12,,,0.12,78.000000,,2013-07-09 21:42:00,
2013-07-09 16:52:00,70.0,68.0,-100.00,East,101,3.0,6.0,95,0.12,,,0.12,78.000000,,2013-07-09 21:52:00,
2013-07-09 17:01:00,70.0,68.0,-100.00,East,101,3.0,6.0,95,0.12,,,0.12,78.000000,,2013-07-09 22:01:00,
2013-07-09 17:11:00,70.0,68.0,-100.00,East,101,3.0,6.0,95,0.12,,,0.12,78.000000,,2013-07-09 22:11:00,
2013-07-09 17:42:00,70.0,68.0,-100.00,ESE,121,3.0,7.0,95,0.11,,,0.23,57.000000,,2013-07-09 22:42:00,
2013-07-09 17:53:00,70.0,68.0,-100.00,ESE,121,3.0,7.0,95,0.11,,,0.23,57.000000,,2013-07-09 22:53:00,
2013-07-09 18:02:00,70.0,68.0,-100.00,ESE,121,3.0,7.0,95,0.11,,,0.23,57.000000,,2013-07-09 23:02:00,
2013-07-09 18:11:00,70.0,68.0,-100.00,ESE,121,3.0,7.0,95,0.11,,,0.23,57.000000,,2013-07-09 23:11:00,
2013-07-09 18:43:00,69.0,68.0,-100.00,SE,131,4.0,8.0,96,0.08,,,0.31,50.000000,,2013-07-09 23:43:00,
2013-07-09 18:53:00,69.0,68.0,-100.00,SE,131,4.0,8.0,96,0.08,,,0.31,50.000000,,2013-07-09 23:53:00,
2013-07-09 19:01:00,69.0,68.0,-100.00,SE,131,4.0,8.0,96,0.08,,,0.31,50.000000,,2013-07-10 00:01:00,
2013-07-09 19:11:00,69.0,68.0,-100.00,SE,131,4.0,8.0,96,0.08,,,0.31,50.000000,,2013-07-10 00:11:00,
2013-07-09 19:43:00,68.0,67.0,-100.00,SE,128,3.0,9.0,98,0.12,,,0.43,16.000000,,2013-07-10 00:43:00,
2013-07-09 19:52:00,68.0,67.0,-100.00,SE,128,3.0,9.0,98,0.12,,,0.43,16.000000,,2013-07-10 00:52:00,
2013-07-09 20:01:00,68.0,67.0,-100.00,SE,128,3.0,9.0,98,0.12,,,0.43,16.000000,,2013-07-10 01:01:00,
2013-07-09 20:11:00,68.0,67.0,-100.00,SE,128,3.0,9.0,98,0.12,,,0.43,16.000000,,2013-07-10 01:11:00,
2013-07-09 20:43:00,69.0,68.0,-100.00,SW,223,2.0,17.0,97,0.17,,,0.60,8.000000,,2013-07-10 01:43:00,
2013-07-09 20:53:00,69.0,68.0,-100.00,SW,223,2.0,17.0,97,0.17,,,0.60,8.000000,,2013-07-10 01:53:00,
2013-07-09 21:02:00,69.0,68.0,-100.00,SW,223,2.0,17.0,97,0.17,,,0.60,8.000000,,2013-07-10 02:02:00,
2013-07-09 21:11:00,69.0,68.0,-100.00,SW,223,2.0,17.0,97,0.17,,,0.60,8.000000,,2013-07-10 02:11:00,
2013-07-09 21:43:00,69.0,68.0,-100.00,NW,306,2.0,14.0,98,0.00,,,0.60,3.000000,,2013-07-10 02:43:00,
2013-07-09 21:53:00,69.0,68.0,-100.00,NW,306,2.0,14.0,98,0.00,,,0.60,3.000000,,2013-07-10 02:53:00,
2013-07-09 22:01:00,69.0,68.0,-100.00,NW,306,2.0,14.0,98,0.00,,,0.60,3.000000,,2013-07-10 03:01:00,
2013-07-09 22:12:00,69.0,68.0,-100.00,NW,306,2.0,14.0,98,0.00,,,0.60,3.000000,,2013-07-10 03:12:00,
2013-07-09 22:43:00,69.0,68.0,-100.00,WNW,283,3.0,9.0,98,0.00,,,0.60,0.000000,,2013-07-10 03:43:00,
2013-07-09 22:52:00,69.0,68.0,-100.00,WNW,283,3.0,9.0,98,0.00,,,0.60,0.000000,,2013-07-10 03:52:00,
2013-07-09 23:01:00,69.0,68.0,-100.00,WNW,283,3.0,9.0,98,0.00,,,0.60,0.000000,,2013-07-10 04:01:00,
2013-07-09 23:11:00,69.0,68.0,-100.00,WNW,283,3.0,9.0,98,0.00,,,0.60,0.000000,,2013-07-10 04:11:00,
2013-07-09 23:33:00,67.0,66.0,-100.00,WNW,295,3.0,16.0,96,0.00,,,0.60,0.000000,,2013-07-10 04:33:00,
2013-07-09 23:43:00,67.0,66.0,-100.00,WNW,295,3.0,16.0,96,0.00,,,0.60,0.000000,,2013-07-10 04:43:00,
2013-07-09 23:52:00,67.0,66.0,-100.00,WNW,295,3.0,16.0,96,0.00,,,0.60,0.000000,,2013-07-10 04:52:00,